Location: Norton
(51.3000°N, 0.8167°E)
Time: 15:26:42
(UTC+00:00)

Ariane Rocket - Pass Details

Date: 03 March 2021
Orbit: 759 x 771 km, 98.7° (Epoch: 13 April)

Event Time Altitude Azimuth Distance (km) Brightness Sun altitude
Exits shadow 20:22:15 23° 194° (SSW) 1,615 4.6 -25.5°
Maximum altitude 20:25:16 50° 260° (W) 985 3.8 -25.9°
Drops below altitude 10° 20:30:15 10° 336° (NNW) 2,324 6.1 -26.6°
Sets 20:32:38 0° 342° (NNW) 3,254 6.9 -27.0°
